• In Portugal
  • List of Countries
  • For 7 days
  • Water Temperature
  • Satellite Maps
  • Weather Map
  • Weather Widgets
  • user-avatar
    Login

    Hourly Weather Amshanka

    Today, 16 November, Friday

    Time Temperature Precipitation Wind Pressure Humidity
    00:00 -1°C° 0 mm 1 mps 771 mmHg 94%
    01:00 -1°C° 0 mm 1 mps 771 mmHg 94%
    02:00 -2°C° 0 mm 1 mps 772 mmHg 94%
    03:00 -2°C° 0 mm 1 mps 772 mmHg 94%
    04:00 -2°C° 0 mm 1 mps 772 mmHg 94%
    05:00 -2°C° 0 mm 1 mps 772 mmHg 94%
    06:00 -4°C° 0 mm 2 mps 772 mmHg 94%
    07:00 -4°C° 0 mm 2 mps 772 mmHg 94%
    08:00 -5°C° 0 mm 2 mps 773 mmHg 94%
    09:00 -3°C° 0 mm 2 mps 773 mmHg 92%
    10:00 -2°C° 0 mm 2 mps 773 mmHg 89%
    11:00 -1°C° 0 mm 2 mps 773 mmHg 87%
    12:00 -1°C° 0 mm 2 mps 773 mmHg 87%
    13:00 +1°C° 0 mm 2 mps 773 mmHg 88%
    14:00 +1°C° 0 mm 2 mps 773 mmHg 88%
    15:00 -1°C° 0 mm 2 mps 773 mmHg 90%
    16:00 -1°C° 0 mm 2 mps 773 mmHg 92%
    17:00 -2°C° 0 mm 2 mps 773 mmHg 94%
    18:00 -2°C° 0 mm 2 mps 773 mmHg 94%
    19:00 -2°C° 0 mm 2 mps 773 mmHg 93%
    20:00 -2°C° 0 mm 2 mps 773 mmHg 93%
    21:00 -2°C° 0 mm 2 mps 773 mmHg 93%
    22:00 -2°C° 0 mm 2 mps 773 mmHg 93%
    23:00 -2°C° 0 mm 3 mps 773 mmHg 93%

    Tomorrow, 17 November, Saturday

    Time Temperature Precipitation Wind Pressure Humidity
    00:00 -2°C° 0 mm 3 mps 773 mmHg 93%
    01:00 -2°C° 0 mm 3 mps 773 mmHg 93%
    02:00 -2°C° 0 mm 3 mps 773 mmHg 93%
    03:00 -2°C° 0 mm 3 mps 772 mmHg 93%
    04:00 -2°C° 0 mm 3 mps 772 mmHg 94%
    05:00 -2°C° 0 mm 3 mps 772 mmHg 94%
    06:00 -2°C° 0 mm 3 mps 771 mmHg 93%
    07:00 -1°C° 0 mm 3 mps 771 mmHg 93%
    08:00 -1°C° 0 mm 3 mps 770 mmHg 93%
    09:00 -1°C° 0.1 mm 3 mps 770 mmHg 92%
    10:00 -1°C° 0.1 mm 4 mps 769 mmHg 90%
    11:00 0°C° 0.1 mm 4 mps 768 mmHg 89%
    12:00 0°C° 0.2 mm 4 mps 768 mmHg 89%
    13:00 0°C° 0.2 mm 4 mps 767 mmHg 89%
    14:00 +1°C° 0.2 mm 4 mps 767 mmHg 89%
    15:00 +1°C° 0 mm 4 mps 766 mmHg 90%
    16:00 +1°C° 0 mm 4 mps 765 mmHg 91%
    17:00 +1°C° 0 mm 4 mps 764 mmHg 92%
    18:00 +1°C° 0.1 mm 4 mps 764 mmHg 93%
    19:00 +3°C° 0.1 mm 4 mps 763 mmHg 93%
    20:00 +3°C° 0.1 mm 4 mps 762 mmHg 94%
    21:00 +3°C° 0.1 mm 4 mps 761 mmHg 94%
    22:00 +3°C° 0.1 mm 4 mps 761 mmHg 93%
    23:00 +3°C° 0.1 mm 4 mps 760 mmHg 93%

    Day after tomorrow, 18 November, Sunday

    Time Temperature Precipitation Wind Pressure Humidity
    00:00 +3°C° 0.2 mm 4 mps 759 mmHg 93%
    01:00 +3°C° 0.2 mm 4 mps 759 mmHg 93%
    02:00 +3°C° 0.2 mm 4 mps 758 mmHg 93%
    03:00 +3°C° 0.3 mm 4 mps 758 mmHg 93%
    04:00 +3°C° 0.3 mm 4 mps 757 mmHg 92%
    05:00 +3°C° 0.3 mm 4 mps 757 mmHg 91%
    06:00 +3°C° 0.1 mm 4 mps 757 mmHg 91%
    07:00 +3°C° 0.1 mm 4 mps 757 mmHg 90%
    08:00 +3°C° 0.1 mm 4 mps 757 mmHg 90%
    09:00 +3°C° 0.2 mm 4 mps 757 mmHg 89%
    10:00 +4°C° 0.2 mm 4 mps 757 mmHg 88%
    11:00 +3°C° 0.2 mm 5 mps 757 mmHg 87%
    12:00 +3°C° 0.2 mm 5 mps 758 mmHg 84%
    13:00 +3°C° 0.2 mm 5 mps 758 mmHg 81%
    14:00 +2°C° 0.2 mm 6 mps 759 mmHg 78%
    15:00 +2°C° 0.1 mm 6 mps 759 mmHg 78%
    16:00 +1°C° 0.1 mm 5 mps 759 mmHg 78%
    17:00 +1°C° 0.1 mm 5 mps 760 mmHg 78%
    18:00 +1°C° 0.1 mm 5 mps 760 mmHg 79%
    19:00 0°C° 0.1 mm 5 mps 760 mmHg 80%
    20:00 0°C° 0.1 mm 5 mps 760 mmHg 80%
    21:00 0°C° 0 mm 5 mps 760 mmHg 81%
    22:00 0°C° 0 mm 4 mps 761 mmHg 82%
    23:00 0°C° 0 mm 4 mps 761 mmHg 84%

    19 November, Monday

    Time Temperature Precipitation Wind Pressure Humidity
    00:00 0°C° 0.1 mm 4 mps 761 mmHg 85%
    01:00 0°C° 0.1 mm 4 mps 761 mmHg 85%
    02:00 0°C° 0.1 mm 4 mps 762 mmHg 86%
    03:00 0°C° 0.1 mm 4 mps 762 mmHg 86%
    04:00 0°C° 0.1 mm 4 mps 762 mmHg 86%
    05:00 0°C° 0.1 mm 4 mps 762 mmHg 87%
    06:00 -1°C° 0.1 mm 4 mps 762 mmHg 86%
    07:00 -1°C° 0.1 mm 4 mps 762 mmHg 86%
    08:00 -1°C° 0.1 mm 4 mps 763 mmHg 86%
    09:00 -1°C° 0.1 mm 4 mps 763 mmHg 85%
    10:00 -1°C° 0.1 mm 4 mps 763 mmHg 85%
    11:00 -1°C° 0.1 mm 4 mps 764 mmHg 84%
    12:00 -1°C° 0.1 mm 4 mps 764 mmHg 85%
    13:00 -1°C° 0.1 mm 4 mps 764 mmHg 85%
    14:00 -1°C° 0.1 mm 4 mps 764 mmHg 86%
    15:00 -1°C° 0.1 mm 4 mps 764 mmHg 87%
    16:00 -1°C° 0.1 mm 4 mps 764 mmHg 87%
    17:00 0°C° 0.1 mm 3 mps 764 mmHg 88%
    18:00 0°C° 0.1 mm 3 mps 764 mmHg 88%
    19:00 0°C° 0.1 mm 3 mps 764 mmHg 89%
    20:00 0°C° 0.1 mm 3 mps 764 mmHg 89%
    21:00 0°C° 0 mm 3 mps 765 mmHg 90%
    22:00 0°C° 0 mm 3 mps 765 mmHg 91%
    23:00 0°C° 0 mm 3 mps 765 mmHg 91%

    20 November, Tuesday

    Time Temperature Precipitation Wind Pressure Humidity
    00:00 0°C° 0 mm 3 mps 765 mmHg 90%
    01:00 0°C° 0 mm 3 mps 766 mmHg 89%
    02:00 0°C° 0 mm 3 mps 766 mmHg 88%
    03:00 +1°C° 0 mm 2 mps 766 mmHg 88%
    04:00 -1°C° 0 mm 2 mps 766 mmHg 88%
    05:00 -1°C° 0 mm 2 mps 766 mmHg 88%
    06:00 -2°C° 0 mm 2 mps 765 mmHg 90%
    07:00 -2°C° 0 mm 2 mps 765 mmHg 91%
    08:00 -3°C° 0 mm 2 mps 765 mmHg 93%
    09:00 -3°C° 0 mm 2 mps 765 mmHg 90%
    10:00 -2°C° 0 mm 2 mps 765 mmHg 86%
    11:00 -2°C° 0 mm 2 mps 765 mmHg 83%
    12:00 -2°C° 0 mm 2 mps 765 mmHg 83%
    13:00 -1°C° 0 mm 2 mps 765 mmHg 83%
    14:00 -1°C° 0 mm 2 mps 764 mmHg 83%
    15:00 -2°C° 0 mm 2 mps 764 mmHg 86%
    16:00 -2°C° 0 mm 2 mps 764 mmHg 88%
    17:00 -3°C° 0 mm 2 mps 764 mmHg 91%
    18:00 -3°C° 0 mm 2 mps 764 mmHg 90%
    19:00 -3°C° 0 mm 2 mps 764 mmHg 90%
    20:00 -1°C° 0 mm 1 mps 763 mmHg 90%
    21:00 -1°C° 0 mm 1 mps 763 mmHg 89%
    22:00 -1°C° 0 mm 1 mps 763 mmHg 88%
    23:00 -1°C° 0 mm 1 mps 763 mmHg 88%

    21 November, Wednesday

    Time Temperature Precipitation Wind Pressure Humidity
    00:00 -1°C° 0 mm 1 mps 763 mmHg 88%
    01:00 -1°C° 0 mm 1 mps 763 mmHg 89%
    02:00 -1°C° 0 mm 1 mps 763 mmHg 89%
    03:00 -2°C° 0 mm 1 mps 762 mmHg 90%
    04:00 -2°C° 0 mm 1 mps 762 mmHg 91%
    05:00 -2°C° 0 mm 1 mps 762 mmHg 91%
    06:00 -2°C° 0 mm 1 mps 762 mmHg 92%
    07:00 -4°C° 0 mm 2 mps 762 mmHg 92%
    08:00 -4°C° 0 mm 2 mps 762 mmHg 92%
    09:00 -3°C° 0 mm 2 mps 762 mmHg 89%
    10:00 -2°C° 0 mm 2 mps 762 mmHg 86%
    11:00 -2°C° 0 mm 2 mps 762 mmHg 83%
    12:00 -1°C° 0 mm 2 mps 761 mmHg 82%
    13:00 -1°C° 0 mm 2 mps 761 mmHg 82%
    14:00 -1°C° 0 mm 3 mps 761 mmHg 82%
    15:00 -2°C° 0 mm 3 mps 761 mmHg 84%
    16:00 -2°C° 0 mm 3 mps 761 mmHg 86%
    17:00 -4°C° 0 mm 3 mps 760 mmHg 88%
    18:00 -4°C° 0 mm 3 mps 760 mmHg 87%
    19:00 -4°C° 0 mm 3 mps 760 mmHg 86%
    20:00 -4°C° 0 mm 3 mps 760 mmHg 84%
    21:00 -4°C° 0 mm 3 mps 760 mmHg 83%
    22:00 -5°C° 0 mm 3 mps 760 mmHg 82%
    23:00 -5°C° 0 mm 3 mps 760 mmHg 80%
    Show more